This demonstration page uses our WeatherBlox Daily Observations layout. Learn more.

Left ArrowRight Arrow

31.31129, -92.44514

Hourly Observations for July 17, 2022

Temp ( °F °C ) Dew Point ( °F °C ) Humidity (%) Winds ( mph kmh ) Pressure ( in mb ) Visibility ( mi km ) Precip ( " mm )
12:53 am 00:53 Clear 83 28.3 74 23.3 74 74 SW 5 7 29.95 1014 10 16 0.00 0.00
1:53 am 01:53 Clear 82 27.8 74 23.3 77 77 Calm 29.96 1014 9 14 0.00 0.00
2:53 am 02:53 Clear 80 26.7 74 23.3 82 82 Calm 29.96 1014 9 14 0.00 0.00
3:53 am 03:53 Clear 79 26.1 74 23.3 85 85 Calm 29.95 1014 9 14 0.00 0.00
4:53 am 04:53 Clear 78 25.6 74 23.3 87 87 Calm 29.96 1014 9 14 0.00 0.00
5:53 am 05:53 Clear 78 25.6 74 23.3 87 87 SSE 3 6 29.97 1015 8 13 0.00 0.00
6:53 am 06:53 Sunny 78 25.6 74 23.3 87 87 Calm 29.97 1015 7 11 0.00 0.00
7:53 am 07:53 Sunny 81 27.2 75 23.9 82 82 WSW 6 9 29.98 1015 7 11 0.00 0.00
8:53 am 08:53 Sunny 85 29.4 74 23.3 70 70 WSW 5 7 29.98 1015 7 11 0.00 0.00
9:53 am 09:53 Sunny 91 32.8 71 21.7 52 52 W 8 13 29.97 1015 8 13 0.00 0.00
10:53 am 10:53 Sunny 92 33.3 69 20.6 47 47 WSW 6 9 29.98 1015 8 13 0.00 0.00
11:53 am 11:53 Sunny 95 35 70 21.1 44 44 S 6 9 29.97 1015 9 14 0.00 0.00
12:53 pm 12:53 Sunny 97 36.1 68 20 39 39 VRB 6 9 29.96 1015 9 14 0.00 0.00
1:53 pm 13:53 Mostly Sunny 98 36.7 68 20 38 38 VRB 6 9 29.94 1014 10 16 0.00 0.00
2:53 pm 14:53 Sunny 98 36.7 67 19.4 36 36 SW 6 9 29.92 1013 10 16 0.00 0.00
3:53 pm 15:53 Sunny 99 37.2 67 19.4 35 35 VRB 5 7 29.91 1013 10 16 0.00 0.00
4:53 pm 16:53 Sunny 98 36.7 68 20 38 38 SW 5 7 29.89 1012 10 16 0.00 0.00
5:53 pm 17:53 Sunny 98 36.7 67 19.4 36 36 SSW 5 7 29.89 1012 10 16 0.00 0.00
6:53 pm 18:53 Sunny 95 35 70 21.1 44 44 SSE 10 17 29.88 1012 10 16 0.00 0.00
7:53 pm 19:53 Sunny 92 33.3 71 21.7 51 51 S 8 13 29.88 1012 9 14 0.00 0.00
8:53 pm 20:53 Mostly Clear 88 31.1 72 22.2 59 59 SSE 7 11 29.89 1012 10 16 0.00 0.00
9:53 pm 21:53 Clear 87 30.6 74 23.3 65 65 S 9 15 29.90 1013 10 16 0.00 0.00
10:53 pm 22:53 Clear 86 30 74 23.3 67 67 S 8 13 29.92 1013 9 14 0.00 0.00
11:53 pm 23:53 Clear 85 29.4 74 23.3 70 70 SSW 5 7 29.94 1014 9 14 0.00 0.00

Powered by AerisWeather